When you browse on this site, cookies collect data to enhance your experience and personalize the content and advertising you see.
Visit our Privacy Policy to learn more. By continuing to use the site, you agree to this use of cookies and data.
  • In Portugal
  • List of Countries
  • For 7 days
  • Water Temperature
  • Satellite Maps
  • Weather Map
  • Weather Widgets
  • user-avatar
    Login

    Hourly Weather Hasselt

    Today, 25 May, Saturday

    Time Temperature Precipitation Wind Pressure Humidity
    00:00 +10°C° 0 mm 1 mps 759 mmHg 78%
    01:00 +9°C° 0 mm 1 mps 759 mmHg 81%
    02:00 +9°C° 0 mm 1 mps 759 mmHg 84%
    03:00 +7°C° 0 mm 0 mps 759 mmHg 87%
    04:00 +9°C° 0 mm 0 mps 759 mmHg 83%
    05:00 +10°C° 0 mm 0 mps 759 mmHg 79%
    06:00 +11°C° 0 mm 0 mps 759 mmHg 75%
    07:00 +14°C° 0 mm 1 mps 759 mmHg 71%
    08:00 +15°C° 0 mm 1 mps 759 mmHg 66%
    09:00 +16°C° 0 mm 1 mps 759 mmHg 62%
    10:00 +18°C° 0 mm 1 mps 759 mmHg 62%
    11:00 +18°C° 0 mm 1 mps 759 mmHg 63%
    12:00 +18°C° 0 mm 1 mps 759 mmHg 63%
    13:00 +19°C° 0 mm 1 mps 759 mmHg 60%
    14:00 +20°C° 0 mm 1 mps 759 mmHg 57%
    15:00 +19°C° 0 mm 0 mps 758 mmHg 54%
    16:00 +19°C° 0.1 mm 0 mps 758 mmHg 58%
    17:00 +18°C° 0.1 mm 0 mps 758 mmHg 63%
    18:00 +18°C° 0.1 mm 0 mps 758 mmHg 68%
    19:00 +18°C° 0 mm 1 mps 758 mmHg 73%
    20:00 +15°C° 0 mm 1 mps 759 mmHg 78%
    21:00 +14°C° 0 mm 1 mps 759 mmHg 83%
    22:00 +13°C° 0 mm 1 mps 759 mmHg 86%
    23:00 +12°C° 0 mm 2 mps 759 mmHg 89%

    Tomorrow, 26 May, Sunday

    Time Temperature Precipitation Wind Pressure Humidity
    00:00 +12°C° 0 mm 2 mps 758 mmHg 92%
    01:00 +10°C° 0 mm 2 mps 758 mmHg 92%
    02:00 +10°C° 0 mm 2 mps 758 mmHg 92%
    03:00 +10°C° 0 mm 2 mps 758 mmHg 92%
    04:00 +11°C° 0 mm 3 mps 758 mmHg 90%
    05:00 +12°C° 0 mm 3 mps 758 mmHg 88%
    06:00 +13°C° 0 mm 4 mps 758 mmHg 86%
    07:00 +15°C° 0 mm 4 mps 758 mmHg 81%
    08:00 +18°C° 0 mm 4 mps 757 mmHg 75%
    09:00 +19°C° 0 mm 4 mps 757 mmHg 69%
    10:00 +20°C° 0.1 mm 5 mps 757 mmHg 70%
    11:00 +20°C° 0.1 mm 5 mps 757 mmHg 71%
    12:00 +21°C° 0.1 mm 5 mps 757 mmHg 72%
    13:00 +20°C° 0.2 mm 5 mps 756 mmHg 75%
    14:00 +20°C° 0.2 mm 5 mps 756 mmHg 78%
    15:00 +19°C° 0.2 mm 5 mps 756 mmHg 81%
    16:00 +19°C° 0.1 mm 4 mps 755 mmHg 82%
    17:00 +19°C° 0.1 mm 4 mps 755 mmHg 83%
    18:00 +19°C° 0.1 mm 4 mps 755 mmHg 83%
    19:00 +18°C° 0 mm 4 mps 755 mmHg 85%
    20:00 +17°C° 0 mm 4 mps 755 mmHg 87%
    21:00 +15°C° 0 mm 4 mps 755 mmHg 88%
    22:00 +15°C° 0.1 mm 4 mps 755 mmHg 89%
    23:00 +15°C° 0.1 mm 4 mps 755 mmHg 90%

    Day after tomorrow, 27 May, Monday

    Time Temperature Precipitation Wind Pressure Humidity
    00:00 +15°C° 0.1 mm 5 mps 754 mmHg 92%
    01:00 +15°C° 0.7 mm 4 mps 754 mmHg 93%
    02:00 +14°C° 0.7 mm 4 mps 754 mmHg 94%
    03:00 +14°C° 0.7 mm 3 mps 754 mmHg 95%
    04:00 +14°C° 0 mm 3 mps 754 mmHg 92%
    05:00 +14°C° 0 mm 3 mps 754 mmHg 89%
    06:00 +13°C° 0 mm 3 mps 754 mmHg 86%
    07:00 +14°C° 0 mm 3 mps 754 mmHg 77%
    08:00 +15°C° 0 mm 4 mps 755 mmHg 69%
    09:00 +18°C° 0 mm 4 mps 755 mmHg 60%
    10:00 +18°C° 0 mm 4 mps 755 mmHg 58%
    11:00 +19°C° 0 mm 5 mps 755 mmHg 56%
    12:00 +19°C° 0 mm 5 mps 755 mmHg 54%
    13:00 +18°C° 0.1 mm 4 mps 754 mmHg 59%
    14:00 +18°C° 0.1 mm 4 mps 754 mmHg 64%
    15:00 +17°C° 0.1 mm 3 mps 754 mmHg 69%
    16:00 +16°C° 0.1 mm 3 mps 754 mmHg 70%
    17:00 +16°C° 0.1 mm 3 mps 754 mmHg 72%
    18:00 +14°C° 0.1 mm 3 mps 754 mmHg 74%
    19:00 +14°C° 0 mm 3 mps 754 mmHg 75%
    20:00 +14°C° 0 mm 2 mps 754 mmHg 76%
    21:00 +13°C° 0 mm 2 mps 754 mmHg 77%
    22:00 +13°C° 0.1 mm 2 mps 754 mmHg 80%
    23:00 +11°C° 0.1 mm 3 mps 754 mmHg 83%

    28 May, Tuesday

    Time Temperature Precipitation Wind Pressure Humidity
    00:00 +11°C° 0.1 mm 3 mps 754 mmHg 86%
    01:00 +11°C° 0.1 mm 3 mps 754 mmHg 89%
    02:00 +10°C° 0.1 mm 3 mps 754 mmHg 91%
    03:00 +10°C° 0.1 mm 3 mps 754 mmHg 93%
    04:00 +10°C° 0 mm 3 mps 754 mmHg 89%
    05:00 +10°C° 0 mm 3 mps 754 mmHg 86%
    06:00 +10°C° 0 mm 3 mps 755 mmHg 83%
    07:00 +10°C° 0.1 mm 3 mps 755 mmHg 78%
    08:00 +11°C° 0.1 mm 3 mps 756 mmHg 74%
    09:00 +11°C° 0.1 mm 3 mps 756 mmHg 70%
    10:00 +12°C° 0.1 mm 3 mps 756 mmHg 65%
    11:00 +13°C° 0.1 mm 4 mps 757 mmHg 60%
    12:00 +14°C° 0.1 mm 4 mps 757 mmHg 55%
    13:00 +14°C° 0.1 mm 4 mps 757 mmHg 54%
    14:00 +14°C° 0.1 mm 4 mps 757 mmHg 53%
    15:00 +14°C° 0.1 mm 4 mps 758 mmHg 53%
    16:00 +13°C° 0 mm 4 mps 758 mmHg 55%
    17:00 +13°C° 0 mm 4 mps 758 mmHg 57%
    18:00 +12°C° 0 mm 4 mps 759 mmHg 59%
    19:00 +11°C° 0 mm 3 mps 760 mmHg 63%
    20:00 +9°C° 0 mm 3 mps 760 mmHg 67%
    21:00 +7°C° 0 mm 2 mps 761 mmHg 71%
    22:00 +7°C° 0 mm 2 mps 761 mmHg 74%
    23:00 +6°C° 0 mm 2 mps 761 mmHg 77%

    29 May, Wednesday

    Time Temperature Precipitation Wind Pressure Humidity
    00:00 +6°C° 0 mm 1 mps 762 mmHg 80%
    01:00 +6°C° 0 mm 1 mps 762 mmHg 82%
    02:00 +5°C° 0 mm 1 mps 762 mmHg 84%
    03:00 +4°C° 0 mm 0 mps 762 mmHg 86%
    04:00 +6°C° 0 mm 1 mps 762 mmHg 81%
    05:00 +8°C° 0 mm 1 mps 763 mmHg 76%
    06:00 +9°C° 0 mm 1 mps 763 mmHg 71%
    07:00 +11°C° 0 mm 1 mps 763 mmHg 66%
    08:00 +13°C° 0 mm 1 mps 763 mmHg 60%
    09:00 +15°C° 0 mm 1 mps 763 mmHg 54%
    10:00 +15°C° 0 mm 1 mps 763 mmHg 54%
    11:00 +16°C° 0 mm 2 mps 763 mmHg 53%
    12:00 +16°C° 0 mm 2 mps 763 mmHg 53%
    13:00 +17°C° 0.1 mm 2 mps 763 mmHg 54%
    14:00 +17°C° 0.1 mm 3 mps 763 mmHg 55%
    15:00 +17°C° 0.1 mm 3 mps 763 mmHg 56%
    16:00 +17°C° 0.1 mm 3 mps 763 mmHg 60%
    17:00 +16°C° 0.1 mm 2 mps 763 mmHg 64%
    18:00 +16°C° 0.1 mm 2 mps 763 mmHg 68%
    19:00 +13°C° 0 mm 2 mps 763 mmHg 70%
    20:00 +11°C° 0 mm 1 mps 764 mmHg 73%
    21:00 +9°C° 0 mm 1 mps 764 mmHg 75%
    22:00 +9°C° 0 mm 1 mps 764 mmHg 75%
    23:00 +8°C° 0 mm 2 mps 764 mmHg 76%

    30 May, Thursday

    Time Temperature Precipitation Wind Pressure Humidity
    00:00 +7°C° 0 mm 2 mps 763 mmHg 76%
    01:00 +7°C° 0 mm 3 mps 763 mmHg 78%
    02:00 +7°C° 0 mm 3 mps 763 mmHg 79%
    03:00 +7°C° 0 mm 3 mps 762 mmHg 81%
    04:00 +7°C° 0 mm 4 mps 762 mmHg 78%
    05:00 +8°C° 0 mm 5 mps 762 mmHg 76%
    06:00 +9°C° 0 mm 6 mps 761 mmHg 73%
    07:00 +11°C° 0 mm 6 mps 761 mmHg 71%
    08:00 +12°C° 0 mm 7 mps 760 mmHg 70%
    09:00 +14°C° 0 mm 7 mps 760 mmHg 68%
    10:00 +14°C° 0.1 mm 7 mps 760 mmHg 72%
    11:00 +15°C° 0.1 mm 7 mps 759 mmHg 76%
    12:00 +15°C° 0.1 mm 7 mps 759 mmHg 80%
    13:00 +14°C° 0.3 mm 7 mps 758 mmHg 84%
    14:00 +14°C° 0.3 mm 7 mps 758 mmHg 87%
    15:00 +12°C° 0.3 mm 7 mps 757 mmHg 91%
    16:00 +12°C° 0.3 mm 7 mps 757 mmHg 91%
    17:00 +12°C° 0.3 mm 7 mps 756 mmHg 92%
    18:00 +13°C° 0.3 mm 6 mps 756 mmHg 92%
    19:00 +13°C° 0.1 mm 6 mps 755 mmHg 92%
    20:00 +13°C° 0.1 mm 6 mps 755 mmHg 93%
    21:00 +13°C° 0.1 mm 6 mps 755 mmHg 93%
    22:00 +11°C° 0.2 mm 6 mps 755 mmHg 93%
    23:00 +11°C° 0.2 mm 6 mps 755 mmHg 93%
    Show more